ECMWFFLT2_925_thetae_021.txt.gz
Theta_e
330 329 329 330 326 322 326 326 320 325 334 328 318 317 319 316 317 319 316 317 326 332 339 345 344 346 347 346 348 349 348 350 350 350 351 348 349 353 352 353 356 357 356 356 358 359 359 360 360 357 352 349 348 348 349 349 348 348 347 346 347 348 348
330 330 328 330 329 328 325 319 322 331 329 327 326 319 317 317 317 317 314 315 320 321 327 341 345 343 345 346 349 351 350 351 352 353 352 349 351 354 353 355 357 357 356 356 358 359 360 361 360 356 351 349 349 349 349 349 349 348 346 346 347 348 348
329 331 327 325 327 331 329 323 328 328 317 317 321 317 318 320 318 317 317 317 319 319 325 336 340 341 345 346 349 351 349 352 357 358 354 352 357 357 353 356 358 358 356 356 358 360 361 361 359 356 351 349 350 350 350 350 350 348 346 346 347 347 348
330 329 324 319 321 329 331 328 330 328 321 320 319 318 321 322 320 319 319 318 321 329 337 339 338 342 345 343 348 350 346 352 361 360 355 357 363 360 354 356 359 358 356 357 359 359 361 361 358 355 352 350 351 351 350 351 351 349 347 346 347 347 347
324 322 323 322 322 327 325 322 321 321 323 324 323 320 319 321 322 320 319 320 325 340 351 348 345 346 346 347 352 353 347 349 355 356 356 360 363 360 356 357 358 357 356 357 360 360 360 360 358 354 352 352 353 352 352 352 352 350 348 347 347 348 346
317 319 328 330 329 329 325 323 321 319 323 320 317 318 316 320 323 320 319 321 326 341 352 351 348 345 347 352 354 353 349 350 352 353 357 363 363 359 356 356 356 356 356 358 362 362 360 359 357 354 353 352 353 354 353 352 352 351 349 349 348 348 346
321 326 330 328 329 331 329 328 327 327 327 318 314 319 320 317 319 319 322 323 330 350 360 353 348 343 346 354 356 351 349 353 355 351 356 362 360 357 355 353 355 356 354 356 360 361 360 359 356 353 352 352 352 353 353 352 352 351 351 350 349 347 346
326 329 332 329 331 332 326 327 329 328 327 321 324 336 332 320 316 318 322 322 330 354 366 355 350 347 345 349 354 355 351 352 355 357 363 365 358 355 354 351 354 356 353 354 357 358 359 357 355 352 351 351 352 353 353 351 351 352 352 351 348 346 345
319 319 323 324 325 326 324 329 329 327 330 325 328 338 333 322 318 320 325 323 329 348 359 350 348 348 346 343 346 354 356 354 356 362 373 372 360 357 356 353 355 356 357 358 355 354 357 356 354 352 350 352 352 352 352 349 349 351 351 349 348 346 345
319 320 323 323 323 324 325 328 328 328 331 325 323 324 321 321 323 324 327 327 333 350 356 349 349 350 347 346 345 351 356 361 364 367 380 384 372 364 360 357 357 356 359 361 355 352 354 353 352 352 351 352 351 350 350 348 348 349 349 348 347 345 345
324 328 334 338 330 322 319 323 325 327 329 328 329 320 317 328 331 324 329 335 333 341 350 350 352 352 352 355 356 352 353 359 364 371 386 391 384 374 365 360 359 359 360 362 357 352 351 351 350 350 350 350 349 348 347 346 347 347 346 346 346 346 346
334 338 336 333 330 323 320 321 323 326 327 328 327 318 323 341 331 318 334 346 332 333 348 352 352 355 357 361 362 358 357 360 359 369 388 391 386 381 371 363 363 363 361 361 358 351 349 350 349 348 348 348 347 346 345 343 344 344 343 345 346 346 345
335 336 330 328 331 327 326 326 323 325 327 324 323 324 337 347 328 322 340 349 337 337 345 350 351 352 353 357 360 358 359 363 359 361 379 385 383 385 377 367 365 364 361 361 358 351 348 348 349 348 347 346 345 345 344 342 342 342 342 344 346 345 345
327 329 329 330 328 325 326 327 326 328 327 326 325 328 339 346 340 344 351 348 346 344 341 345 349 349 352 355 355 351 354 366 368 364 371 374 374 379 378 370 367 364 362 360 356 351 348 348 349 349 347 345 345 344 342 341 341 341 341 343 346 347 345
323 327 329 329 327 326 323 323 330 330 328 330 328 327 331 334 337 351 355 347 348 346 341 348 351 353 356 353 352 354 356 361 362 360 363 367 369 371 371 370 369 366 364 362 357 352 349 348 350 350 348 346 345 342 338 337 339 340 341 344 345 344 340
318 324 327 326 325 325 320 319 327 328 325 327 328 331 335 329 330 343 345 339 345 349 349 352 355 357 358 356 358 364 366 364 358 354 355 360 366 369 368 370 373 370 366 364 361 354 349 350 352 350 348 346 341 337 335 336 337 337 338 339 338 336 334
318 323 325 324 322 319 316 319 326 328 330 331 330 331 336 335 340 345 339 337 347 355 353 351 353 356 357 359 362 363 368 372 368 362 361 361 367 374 373 372 374 370 365 362 359 353 350 352 353 350 346 343 339 336 335 336 337 336 335 335 333 332 333
317 325 328 324 319 317 322 332 334 334 333 332 332 333 336 343 350 349 344 345 352 352 350 352 354 353 353 355 358 362 368 371 366 362 363 364 365 372 374 371 368 367 363 358 355 354 353 353 352 348 344 341 338 336 334 333 333 334 334 335 335 334 336
322 332 335 323 316 322 337 345 340 336 335 336 339 341 344 347 348 350 348 349 354 354 351 353 356 355 355 357 362 367 370 373 371 367 367 368 365 367 371 372 368 364 360 355 353 355 354 353 351 347 344 342 338 335 333 331 330 332 335 338 339 339 340
326 326 328 324 324 334 348 347 339 336 342 346 343 341 348 348 346 351 350 346 355 358 351 352 356 356 359 363 365 364 363 365 364 360 361 363 360 362 368 372 370 363 356 354 355 356 354 353 350 346 343 341 337 334 333 332 332 333 335 339 343 343 342
326 320 322 327 327 331 339 342 340 338 339 345 341 337 345 351 349 356 358 349 352 356 352 350 350 351 357 358 355 355 356 356 354 352 351 350 352 358 360 362 364 359 354 355 357 357 355 352 350 346 342 339 336 334 333 333 333 334 335 339 345 346 343
330 321 320 326 320 320 331 340 345 342 334 341 345 338 344 356 353 352 355 351 350 354 354 353 352 358 361 353 346 348 349 349 350 349 346 346 353 360 359 360 364 361 358 359 359 358 356 353 350 346 341 338 336 334 334 333 333 335 337 341 345 346 345
331 324 322 323 318 323 343 350 346 340 334 343 349 336 337 355 357 349 351 353 352 350 353 359 362 361 356 347 343 344 344 346 350 348 347 354 359 358 358 362 365 364 363 361 360 359 356 351 349 346 341 338 336 334 334 334 334 337 340 343 345 345 345
330 329 326 324 324 338 357 349 339 339 339 352 352 332 333 353 358 350 348 351 353 351 353 360 359 357 356 352 348 343 337 339 348 353 359 367 365 360 359 361 362 362 363 363 361 360 355 350 348 346 341 338 337 336 336 336 337 340 343 344 344 344 344
326 326 323 322 330 350 357 341 337 338 338 346 340 333 343 356 353 348 345 344 350 354 354 355 354 355 359 355 347 343 339 342 352 358 359 360 359 357 357 359 361 360 361 361 360 358 354 350 348 345 341 339 338 339 340 339 340 342 342 343 344 343 344
331 332 331 326 332 349 347 336 340 340 337 340 340 343 351 350 344 346 345 342 346 349 349 350 350 348 348 345 341 341 344 349 357 359 357 356 356 357 357 358 359 360 360 359 358 356 354 350 347 345 342 341 341 343 343 342 342 342 341 341 341 342 343
346 344 341 333 335 348 344 340 355 358 349 353 361 358 351 343 341 345 345 343 346 345 344 347 347 345 346 348 348 346 347 353 358 358 358 356 355 358 358 357 358 360 359 355 353 353 353 349 347 346 344 344 345 346 346 344 344 345 346 345 343 343 343
353 345 345 344 346 350 343 344 362 363 355 360 366 358 350 346 344 345 346 347 347 346 347 349 348 347 349 351 352 350 351 356 359 357 357 356 354 356 357 356 356 355 350 346 344 346 350 349 348 347 347 348 349 349 349 349 348 348 348 346 346 346 346
352 348 353 356 352 347 342 345 352 351 348 351 350 345 344 345 345 345 347 347 348 348 351 353 353 352 351 352 353 351 354 361 361 358 358 357 354 353 350 347 346 345 342 341 340 339 344 349 348 347 347 349 351 351 351 350 347 343 340 339 342 344 346
352 345 347 348 343 339 339 340 341 340 340 342 342 343 345 345 346 347 347 347 350 351 351 352 356 356 353 352 353 354 360 367 364 359 357 352 347 346 345 342 341 340 339 340 340 339 341 346 350 350 349 351 352 350 348 344 340 337 336 337 340 342 344
349 348 349 345 339 337 337 337 338 338 337 338 342 347 348 346 346 346 344 345 350 352 352 355 358 357 354 356 360 361 362 360 357 356 355 349 344 344 344 342 340 339 339 340 340 341 341 343 347 348 348 349 348 345 343 341 339 340 341 341 342 343 343
352 354 353 346 343 341 336 336 339 338 337 338 340 342 343 341 342 343 343 343 346 348 353 359 361 358 357 360 361 359 355 352 351 352 351 346 343 342 341 340 340 339 339 340 340 340 339 341 342 343 344 343 340 340 339 335 332 335 339 341 342 343 343
357 355 350 348 350 346 336 335 338 338 336 337 337 337 337 336 338 341 341 342 343 344 350 358 362 361 357 356 352 348 347 348 348 348 346 343 342 342 342 340 339 338 339 339 339 337 336 336 335 333 335 334 332 333 331 326 325 329 334 337 339 339 341
357 357 353 352 352 345 336 336 339 338 336 336 336 336 335 333 336 338 336 337 342 345 348 355 361 362 358 353 349 347 347 347 346 345 343 341 340 342 342 341 340 339 339 339 337 335 334 331 327 325 328 330 329 327 326 325 327 329 332 334 335 335 337
349 347 345 347 349 343 336 337 339 339 338 336 333 333 333 333 334 334 333 335 340 344 347 351 357 361 359 354 352 351 350 346 343 343 342 340 340 340 340 340 340 339 338 339 338 336 332 326 324 326 330 330 327 326 327 329 329 328 330 333 334 334 334
334 333 334 339 343 340 335 336 338 338 338 336 332 330 332 332 331 331 335 339 341 343 345 346 349 355 357 353 354 357 353 345 341 342 342 340 339 338 338 338 338 339 340 340 339 337 333 328 326 328 329 328 327 329 332 333 331 330 331 331 332 333 332
327 331 332 333 336 336 336 336 334 334 335 334 333 334 334 333 334 336 337 340 340 337 338 340 341 346 351 351 351 353 350 344 341 343 343 341 339 338 339 338 337 340 342 340 337 337 335 329 326 325 327 330 331 332 333 333 332 332 332 330 331 331 330

ECMWFFLT2_925_thetae_024.txt.gz
Theta_e
329 327 329 328 325 327 328 323 320 324 334 333 319 320 330 324 318 325 325 323 333 337 344 357 352 348 352 347 347 347 344 346 345 345 347 347 351 352 351 351 350 350 350 350 353 353 356 358 359 360 359 357 357 355 353 351 349 346 341 340 341 341 340
328 328 329 328 328 335 330 317 321 331 328 334 333 324 324 322 319 326 326 318 322 324 330 353 358 353 351 349 347 346 346 346 345 346 347 346 351 350 351 352 349 350 351 351 353 354 356 358 358 359 358 356 356 354 353 350 347 344 341 341 343 344 343
327 329 326 325 327 330 329 323 329 331 316 319 328 320 318 320 320 324 325 322 323 324 332 348 352 352 353 350 348 347 346 346 345 347 347 347 350 351 350 350 349 350 352 352 353 355 356 358 358 358 357 355 355 353 352 350 347 343 341 342 343 343 344
326 328 323 318 320 325 330 328 328 330 323 320 320 319 320 320 321 324 324 322 326 338 355 356 348 352 352 347 350 348 344 346 345 345 347 347 350 352 350 349 350 350 352 352 353 355 355 357 357 357 355 354 353 351 351 349 346 345 344 345 345 343 344
323 322 323 320 321 324 322 321 321 320 324 323 320 323 323 320 323 327 323 322 334 358 372 360 348 348 348 346 348 348 345 346 346 345 346 348 350 350 350 349 350 350 351 353 354 355 356 357 358 356 354 352 351 350 349 348 346 346 347 347 346 344 344
316 320 329 326 325 327 323 322 322 318 322 322 316 318 322 322 324 327 323 322 336 359 361 352 348 346 347 348 347 348 349 347 349 349 346 347 350 350 349 348 350 351 352 353 353 356 356 356 357 355 353 352 350 350 348 347 347 346 347 347 346 344 346
322 325 331 328 325 330 326 326 327 326 330 324 314 317 323 322 321 326 330 325 336 366 362 345 348 348 344 347 348 348 350 350 351 350 347 350 352 350 349 348 350 351 351 352 354 355 356 357 357 354 352 351 350 350 349 348 348 347 347 347 346 346 347
330 327 328 327 327 328 325 327 329 326 330 327 328 336 336 324 317 322 331 326 333 371 371 343 346 350 342 343 346 347 350 351 353 351 352 357 357 355 352 351 353 353 351 354 355 355 357 357 356 354 352 351 350 350 349 348 348 347 346 347 347 346 347
318 320 322 321 324 327 325 332 330 326 331 330 334 343 334 323 321 324 328 323 331 365 366 340 341 345 340 343 344 344 350 350 351 354 357 361 361 358 356 355 357 356 355 358 356 355 358 357 356 354 351 351 351 350 350 349 349 348 347 347 347 347 347
316 317 319 320 323 327 326 331 328 327 331 324 326 331 319 317 326 329 326 325 334 357 354 338 340 340 341 346 343 344 350 349 351 357 359 361 361 359 359 358 359 358 358 360 358 355 357 357 356 354 352 351 352 351 350 349 349 349 349 348 348 347 347
320 324 337 345 334 323 320 322 325 327 329 326 332 330 320 325 332 329 332 333 331 340 345 341 343 340 341 347 344 344 349 346 353 360 360 362 361 358 358 357 358 359 359 361 361 357 356 357 356 354 353 352 351 351 351 350 350 350 349 349 348 347 347
322 333 356 359 335 320 319 321 322 326 329 329 329 323 327 340 330 321 338 345 328 331 345 343 341 342 343 345 343 345 346 345 351 360 364 364 360 357 357 355 357 360 358 360 360 357 356 357 356 354 352 352 352 351 351 351 350 350 350 350 348 347 347
326 330 339 342 332 324 324 324 323 325 326 326 326 327 341 345 326 320 339 346 332 334 342 339 338 341 341 341 341 342 344 345 351 362 368 367 362 360 356 355 356 357 357 358 358 355 355 356 355 353 352 351 351 351 351 350 350 350 350 349 349 348 347
329 330 330 334 330 326 325 325 327 328 327 327 325 332 344 341 332 337 344 342 339 338 337 337 336 338 340 342 342 342 344 346 352 365 371 367 364 361 358 356 354 354 356 358 356 353 352 354 353 351 350 350 350 350 351 349 349 350 350 349 348 348 346
323 328 331 332 327 326 323 324 332 331 327 332 327 328 339 338 337 345 344 339 342 343 339 339 340 344 347 346 344 344 347 349 353 363 369 368 366 364 360 358 355 354 355 356 357 355 351 351 352 350 350 350 349 349 349 348 348 349 348 348 348 347 346
318 325 327 326 326 327 320 320 330 329 327 331 329 331 336 334 340 348 340 334 340 345 346 345 346 348 346 344 345 347 349 350 352 360 366 369 371 370 365 362 359 357 355 356 357 355 349 349 351 350 350 349 348 347 347 347 347 347 347 347 347 347 346
318 326 328 331 330 321 316 324 332 330 333 337 334 338 341 343 355 356 338 334 343 347 346 348 349 347 343 345 350 351 352 352 352 358 366 368 368 370 369 367 362 359 357 355 353 351 348 349 350 349 349 348 347 347 345 345 345 344 345 346 346 346 346
319 327 332 331 325 316 321 341 342 330 336 340 336 340 342 345 360 363 349 349 356 350 346 350 350 346 346 351 352 354 358 359 360 363 365 365 366 368 369 367 364 362 358 353 350 350 349 348 348 350 349 347 347 346 344 342 342 342 344 345 345 345 344
325 333 332 318 316 326 342 353 344 333 337 342 342 345 343 343 348 353 352 352 353 350 348 349 348 346 347 350 351 354 358 360 363 367 370 371 375 377 373 370 368 366 362 354 350 349 349 349 349 348 348 347 345 344 343 341 341 342 343 344 344 344 343
327 332 329 319 324 344 356 350 340 339 343 347 345 339 340 347 347 346 346 344 343 344 343 344 348 350 352 351 349 354 360 362 360 364 368 370 372 381 387 381 372 366 360 355 352 351 350 349 348 348 347 346 343 341 340 341 340 341 342 342 342 341 339
331 331 329 333 336 336 340 343 341 340 340 346 346 335 336 349 350 344 344 344 344 343 342 345 348 347 349 348 343 347 358 367 369 362 360 363 366 372 374 368 362 358 355 355 354 353 351 349 349 348 346 343 341 338 338 339 339 339 339 339 338 338 336
340 336 331 335 330 324 335 345 343 340 338 346 356 348 340 343 344 343 345 345 347 347 343 345 344 344 348 349 346 347 352 363 370 361 354 360 361 353 346 346 351 353 355 355 353 353 353 350 348 347 344 341 338 336 336 336 336 336 336 336 335 335 334
343 341 333 330 323 326 342 349 343 340 338 344 353 345 338 342 344 346 347 343 343 343 341 344 345 345 347 348 349 350 349 353 357 353 356 367 360 344 338 342 348 351 353 354 353 353 352 349 348 346 341 338 336 334 334 334 334 334 334 333 334 334 333
343 342 333 329 328 335 344 344 340 338 340 353 345 327 330 348 347 345 346 343 347 349 346 346 345 343 348 350 346 342 344 350 351 350 363 381 377 361 353 352 351 351 354 354 353 353 350 348 346 343 338 336 334 333 333 333 333 334 333 334 335 336 336
346 341 331 328 333 343 345 339 338 338 346 359 344 330 341 354 345 342 345 341 345 349 346 347 344 343 349 351 346 344 352 363 365 360 359 363 366 363 358 359 360 358 355 355 353 351 350 346 342 338 336 335 334 334 334 333 333 334 333 335 336 335 336
346 347 343 334 333 342 342 337 342 345 343 343 339 342 353 350 341 344 345 340 343 346 346 348 345 342 343 344 346 354 367 375 375 369 364 360 360 361 359 359 362 359 356 356 352 349 348 345 340 337 336 335 334 334 335 334 333 333 334 336 336 335 334
349 354 351 338 334 341 340 339 352 356 346 345 348 349 348 344 343 346 345 345 347 346 347 349 345 343 344 344 347 357 369 372 368 363 364 365 362 358 357 357 357 356 352 350 347 345 345 343 339 337 336 336 335 334 334 334 333 333 334 336 335 334 335
354 351 346 338 337 339 337 339 349 348 345 352 357 349 342 343 342 343 345 347 345 344 346 348 345 345 347 347 351 360 366 367 363 364 367 365 357 352 349 351 353 350 346 345 344 343 342 341 339 336 336 337 336 334 334 335 334 334 335 335 335 337 338
349 348 346 344 342 338 334 337 340 339 338 343 345 342 343 345 342 341 344 346 344 344 346 348 348 349 350 353 360 367 368 364 365 367 365 357 350 347 345 345 348 348 346 344 343 341 342 342 341 338 337 337 337 337 336 337 338 338 338 337 338 340 342
342 342 341 343 341 338 336 333 332 333 333 333 334 336 339 341 340 340 342 344 347 348 349 353 356 353 356 365 369 367 366 366 364 363 358 349 344 342 342 344 346 345 344 342 341 341 342 342 342 341 339 339 339 338 336 338 342 342 340 342 343 343 344
342 340 343 344 341 338 339 337 333 333 333 332 332 333 334 335 336 337 340 344 346 348 350 354 358 357 364 375 373 365 364 363 359 360 360 352 344 340 341 342 342 342 342 341 341 341 341 342 343 343 342 341 341 336 331 334 337 335 333 336 341 343 345
349 348 349 350 343 337 338 340 339 336 334 333 333 333 335 336 333 331 335 338 343 351 354 352 355 361 367 373 375 372 365 359 357 357 353 346 341 340 340 341 341 341 341 341 340 340 339 341 343 342 341 340 337 332 329 330 333 334 334 336 339 343 344
350 348 349 349 344 338 337 340 343 341 337 336 336 334 334 335 333 331 332 333 338 348 353 354 360 365 365 367 373 371 361 357 357 354 346 340 339 340 339 339 340 341 340 340 340 338 337 339 341 340 340 339 335 332 332 333 334 335 338 339 342 344 344
350 351 349 347 344 343 341 341 345 345 340 338 338 336 335 337 338 336 334 332 333 338 344 352 364 370 366 364 367 367 362 359 356 349 342 339 339 339 339 339 340 340 339 338 338 336 336 339 340 338 338 338 337 333 330 330 327 327 333 340 343 344 344
348 350 348 345 344 343 340 340 342 341 339 336 333 333 334 336 336 335 334 333 333 333 336 341 353 368 371 363 362 368 365 353 346 343 339 338 339 339 339 339 338 338 337 336 335 335 335 337 337 335 333 332 330 326 324 323 323 326 333 339 339 339 339
336 340 345 346 344 339 336 338 338 337 336 334 330 331 333 332 333 335 336 335 333 333 332 332 334 350 365 360 358 370 367 347 338 340 338 338 339 339 339 339 338 336 335 334 333 333 332 333 333 331 328 326 324 324 324 324 325 328 333 332 332 333 334
328 330 333 335 335 334 332 332 331 332 335 336 333 332 332 333 336 336 333 331 328 327 330 328 324 332 350 352 349 356 356 343 338 340 340 338 339 339 338 338 338 336 336 335 333 332 331 331 332 328 325 325 324 325 327 328 327 327 329 328 329 331 332

ECMWFFLT2_925_thetae_030.txt.gz
Theta_e
323 324 327 327 323 322 322 321 319 322 328 328 320 320 329 327 323 328 328 327 333 333 338 350 354 352 349 345 344 343 346 349 346 345 347 346 348 349 349 351 351 352 351 350 352 352 352 353 353 355 355 355 356 356 356 356 356 356 355 356 355 355 356
322 324 327 326 324 327 324 316 321 326 324 330 331 322 324 325 322 328 326 321 323 324 335 356 354 347 348 347 344 342 345 350 347 345 345 346 348 348 349 351 351 352 351 350 351 352 352 353 353 354 355 356 357 356 357 357 356 356 356 355 356 355 356
324 324 321 321 322 325 325 322 326 326 318 322 326 321 322 322 322 327 324 322 325 323 331 348 345 343 348 345 344 343 344 349 347 344 344 345 347 348 349 350 350 352 351 350 351 352 352 353 353 354 355 356 357 356 357 357 356 357 356 355 355 355 356
322 323 319 315 318 321 323 325 325 324 324 324 321 320 322 320 323 328 322 320 327 330 334 342 341 346 346 342 346 346 343 345 344 342 344 344 345 348 348 349 350 351 350 350 350 351 352 353 352 353 354 355 356 356 357 357 356 357 356 355 355 354 354
319 320 321 317 318 320 319 319 319 319 322 324 322 322 324 324 326 328 323 321 329 340 342 343 343 346 344 343 348 347 343 342 341 341 343 343 344 346 347 348 349 349 348 349 350 351 351 352 352 353 354 355 356 357 356 357 356 356 356 355 354 354 353
316 321 328 325 323 324 322 319 319 319 320 320 317 318 323 325 324 327 327 319 326 343 347 342 342 344 344 343 345 345 345 341 340 342 342 343 345 344 346 347 346 348 348 347 349 350 350 351 352 353 354 355 356 356 357 357 356 356 356 354 353 352 352
321 326 328 324 322 324 324 322 322 323 323 319 313 315 321 321 320 327 326 316 326 358 361 345 345 350 348 347 345 345 345 342 341 343 342 342 344 344 344 345 345 347 348 346 347 349 349 350 351 352 353 354 355 356 356 356 356 355 355 354 352 351 351
325 325 326 326 324 324 321 321 324 323 322 321 318 323 329 323 319 324 321 316 334 378 378 357 356 359 355 352 348 346 345 345 345 344 343 344 344 344 344 344 347 347 346 347 347 347 348 349 350 351 353 354 355 356 356 356 356 355 354 353 351 350 350
318 319 321 320 319 322 323 325 326 323 325 326 324 329 327 320 321 323 320 319 335 371 379 360 356 360 360 353 346 344 345 347 347 345 346 347 345 345 346 346 350 350 349 350 349 347 347 348 349 350 351 354 354 355 356 356 355 355 353 352 350 349 348
316 315 317 319 322 326 327 329 326 323 326 323 323 325 318 317 324 325 323 326 336 357 365 352 349 360 366 359 347 343 345 346 348 347 347 347 346 347 348 349 352 352 350 351 350 347 347 347 349 350 350 353 354 354 356 355 355 354 352 351 350 348 347
317 318 324 334 336 325 319 323 324 323 325 323 327 325 318 324 330 326 334 340 330 336 351 349 352 359 362 360 350 345 347 346 347 347 345 345 345 346 348 349 352 353 351 352 351 347 346 347 348 349 350 352 353 354 355 355 354 353 352 351 349 348 347
320 323 328 335 335 323 318 322 321 323 326 323 324 321 322 335 327 319 346 359 329 328 352 355 358 361 356 356 351 346 346 345 344 346 346 348 348 347 350 350 351 354 352 351 351 347 346 347 348 349 350 351 352 354 354 354 353 352 351 350 348 347 346
324 326 325 329 330 325 325 325 322 323 326 322 320 321 328 338 323 316 344 359 335 334 352 353 356 359 353 351 348 344 344 345 346 347 348 351 350 349 351 351 352 353 352 352 353 348 345 346 348 348 349 351 352 353 353 353 352 352 350 348 347 346 345
324 323 322 327 326 325 324 324 326 326 325 324 322 323 330 333 326 325 342 352 343 340 347 348 347 347 347 348 345 343 344 346 348 348 348 349 349 348 350 351 351 352 352 352 352 350 347 345 348 349 349 351 352 352 353 353 352 351 349 348 347 345 342
321 321 323 325 321 323 321 319 326 325 322 325 321 321 332 331 328 333 340 343 343 341 344 348 346 345 347 349 348 346 346 348 348 348 348 347 346 347 349 351 352 352 352 352 353 353 348 345 347 349 349 351 351 352 352 351 351 350 348 347 345 341 340
317 321 322 323 321 322 318 315 322 323 320 323 321 324 336 334 329 335 335 333 337 342 345 345 347 349 347 346 349 348 347 350 350 347 348 347 348 350 351 353 354 353 353 354 356 354 348 345 347 348 349 351 351 351 352 351 351 350 348 346 342 340 340
319 322 320 322 320 315 315 319 321 321 323 326 323 326 336 338 336 335 330 328 336 345 345 343 346 348 344 344 348 347 346 350 349 347 349 349 351 352 352 354 355 353 353 353 352 348 345 345 348 348 350 351 351 351 351 350 350 349 347 345 341 340 341
322 327 323 322 317 313 323 338 334 325 324 324 324 328 338 344 346 344 341 342 347 346 344 344 346 345 343 343 342 342 345 348 348 350 352 352 353 352 352 353 353 352 352 349 345 344 344 346 348 348 350 351 351 351 351 350 350 348 347 344 341 341 341
325 329 321 316 317 324 340 350 341 332 326 324 332 341 346 349 350 353 355 353 353 349 343 340 343 344 346 348 347 347 346 345 347 352 354 354 354 353 352 354 353 354 355 349 342 343 346 347 348 349 350 351 351 351 351 350 349 348 346 343 341 341 341
324 322 317 318 327 340 346 342 340 340 335 332 337 338 338 342 345 352 362 363 360 353 342 340 346 351 351 350 349 348 347 345 346 349 352 353 353 353 354 356 356 353 351 347 342 342 345 346 348 350 351 352 352 351 351 350 349 348 346 343 341 341 340
331 327 323 326 331 334 338 341 342 341 337 336 339 337 335 339 340 346 359 364 357 349 344 345 349 351 349 345 343 342 343 344 344 345 347 348 350 355 353 350 350 347 344 344 344 343 344 345 347 349 350 352 352 350 350 349 348 347 345 343 341 341 341
338 334 326 328 328 327 340 351 343 337 335 335 339 338 335 338 340 342 349 353 351 347 346 348 349 347 346 348 347 345 344 345 347 349 348 346 350 355 350 344 344 345 346 348 347 345 345 345 345 348 350 351 351 349 348 347 347 346 344 343 342 342 341
336 332 329 335 333 332 345 354 344 337 336 335 336 333 329 336 344 344 344 344 344 343 341 343 346 343 344 349 346 342 344 347 348 349 347 347 346 342 339 342 345 346 348 350 350 348 348 347 346 347 348 350 350 347 345 346 345 344 344 344 343 343 341
340 339 337 339 338 337 344 346 340 337 336 335 332 327 329 341 345 343 342 342 342 343 342 345 348 346 347 348 340 335 340 346 349 352 355 359 355 345 340 343 346 348 350 350 349 349 348 348 348 347 347 349 348 345 344 343 343 343 343 344 344 343 342
346 343 337 335 338 342 343 339 336 334 334 331 327 326 334 345 343 341 341 339 340 344 346 349 351 346 343 343 341 341 348 354 356 357 356 358 358 351 346 346 344 347 349 349 349 349 349 349 348 346 347 347 344 343 342 341 342 343 343 343 342 341 342
343 342 338 333 336 340 337 333 334 335 333 332 332 333 339 341 339 340 343 340 340 344 346 348 349 344 342 344 347 349 354 358 360 359 356 356 357 353 349 348 346 347 348 347 348 349 348 348 347 346 346 345 343 341 340 340 341 342 341 341 341 341 341
341 342 337 329 332 337 333 334 343 345 341 341 342 342 342 342 341 342 344 344 343 343 345 347 346 346 348 349 349 350 352 354 355 354 355 358 357 354 350 348 348 347 346 345 346 348 348 347 347 346 345 343 341 340 339 339 340 340 340 340 340 339 339
344 344 339 331 335 338 333 334 344 345 341 341 343 344 344 344 344 343 345 348 346 344 346 347 347 350 353 353 353 354 352 353 353 353 353 353 350 348 345 345 347 347 345 344 345 346 346 344 344 344 343 342 339 338 338 338 338 338 339 339 338 338 338
341 342 343 340 341 340 335 334 337 336 335 336 338 340 342 344 345 346 346 347 347 344 345 345 346 350 354 356 359 358 356 355 354 352 350 347 345 344 343 343 345 347 345 344 343 342 341 340 340 340 340 340 338 337 337 336 337 337 337 337 337 337 337
342 340 341 341 340 339 337 335 333 331 332 333 333 336 340 341 343 345 345 348 348 345 344 346 349 350 351 356 360 361 362 363 359 358 358 350 341 341 343 344 344 345 344 343 341 339 338 337 337 337 337 338 338 337 336 335 336 336 336 336 336 336 336
348 349 345 340 339 339 339 337 333 331 331 331 331 334 335 336 337 339 341 345 346 344 344 347 351 352 352 357 361 361 364 365 364 368 372 360 343 338 341 344 344 344 343 341 339 339 338 337 337 336 336 337 337 336 335 334 335 335 335 335 335 335 335
352 351 344 340 339 339 340 340 336 334 333 332 332 332 332 332 331 331 332 335 338 342 345 347 351 354 353 355 360 361 362 363 362 364 364 356 345 340 341 343 343 343 342 340 340 340 338 337 336 336 336 336 336 335 334 333 334 335 334 334 334 335 334
345 341 339 340 342 340 340 342 341 339 336 333 332 331 330 329 328 327 327 328 330 334 339 342 348 353 353 353 357 359 358 357 357 356 351 344 339 339 340 340 341 342 341 341 342 341 339 338 336 336 336 336 335 334 333 333 333 333 333 334 334 334 334
342 340 339 340 342 341 340 340 340 339 335 331 330 330 329 328 327 326 325 325 325 326 330 335 342 349 351 350 351 352 351 348 347 346 342 336 335 338 339 339 341 341 342 342 341 341 340 338 336 336 336 335 335 335 334 333 333 333 334 336 336 336 336
337 337 337 336 337 337 334 333 334 335 333 329 327 327 325 324 325 324 324 324 325 324 325 329 336 343 346 345 344 346 346 341 338 338 337 335 335 336 337 339 340 340 340 340 340 340 340 338 337 336 336 336 337 336 335 334 335 335 336 336 336 336 337
330 327 327 327 326 326 325 324 326 327 327 326 325 324 322 321 321 322 323 323 324 323 323 324 329 334 338 338 341 345 346 340 336 336 336 336 336 336 337 338 338 338 338 339 338 339 339 339 337 337 336 336 336 334 333 334 335 333 331 329 328 328 330
329 325 323 322 323 323 322 322 323 323 324 325 325 324 323 322 321 321 322 323 323 323 323 322 322 324 327 330 332 336 338 338 338 338 339 338 337 337 338 337 336 336 337 337 337 338 338 338 338 337 335 333 332 332 332 333 332 327 324 324 324 324 325

ECMWFFLT2_925_thetae_036.txt.gz
Theta_e
323 322 321 324 321 318 320 320 316 320 329 325 315 313 316 315 314 316 316 319 323 326 333 337 338 336 335 336 338 339 343 347 348 349 351 351 351 351 351 353 354 355 356 357 358 357 358 359 359 360 360 361 361 362 363 364 364 364 366 365 365 364 364
322 323 322 324 323 323 321 315 317 326 330 327 319 314 316 316 315 315 314 316 318 317 322 332 336 334 333 335 335 335 340 347 349 349 350 351 351 352 352 354 355 355 356 357 358 357 357 358 359 360 360 361 362 361 363 364 364 365 365 366 365 364 365
321 323 321 320 321 325 323 320 325 325 318 317 318 315 315 316 315 315 313 314 316 314 318 327 333 334 335 335 334 334 337 345 350 349 350 352 351 351 353 353 354 356 355 357 358 357 356 358 359 360 360 361 361 362 363 363 364 364 364 366 366 365 365
321 321 319 314 316 322 324 323 327 325 319 317 317 317 317 314 314 315 313 313 315 319 325 330 334 337 336 334 336 336 335 342 350 351 349 350 352 352 352 352 354 355 354 356 358 356 356 357 359 360 360 359 360 361 362 362 363 364 364 365 365 365 365
318 316 317 316 316 318 319 317 318 319 320 320 319 318 316 315 314 314 315 313 313 323 334 334 335 337 335 335 335 336 335 335 344 351 350 351 353 353 353 352 353 353 353 355 356 356 356 357 359 359 358 358 358 359 361 362 362 364 364 365 365 366 366
313 315 321 322 320 321 320 317 316 317 318 317 315 316 316 315 313 313 315 313 314 325 337 336 335 336 333 334 334 334 337 333 337 349 351 351 354 354 352 352 351 352 353 355 355 356 356 356 358 359 358 358 358 358 360 360 361 362 362 365 366 366 366
318 321 324 322 321 323 323 321 322 321 320 316 311 313 315 314 314 314 314 312 317 329 336 334 335 336 333 334 334 333 334 332 338 350 351 351 354 353 351 349 350 352 353 354 356 356 357 357 358 359 358 358 358 358 358 359 360 360 360 362 366 367 366
324 324 325 324 324 323 320 320 323 322 321 319 317 318 318 315 313 314 313 312 318 329 340 340 337 335 332 333 334 335 337 338 343 351 351 351 354 354 352 350 350 351 352 356 358 358 359 359 359 360 359 358 359 358 358 358 359 360 359 361 366 367 366
320 320 321 321 321 321 319 319 323 323 323 323 321 321 320 316 313 315 314 312 317 329 344 346 342 339 334 331 334 336 342 344 347 352 353 353 355 356 354 352 351 352 354 359 360 361 362 361 360 361 360 359 360 359 358 358 358 359 360 360 364 366 365
316 316 315 316 317 319 320 320 321 322 322 322 320 316 314 313 315 316 314 313 319 331 340 341 341 341 335 333 333 332 338 346 349 353 355 355 356 356 355 353 354 355 358 361 362 363 364 363 362 363 362 360 359 359 359 359 358 360 361 360 364 365 364
317 316 319 324 324 318 316 317 319 321 322 322 320 314 310 314 316 315 317 319 319 326 334 336 336 336 334 335 334 331 337 348 350 355 358 356 356 356 355 355 356 358 361 363 364 365 366 365 363 363 363 360 360 361 361 360 359 360 361 361 363 364 362
322 324 326 328 327 320 317 318 318 320 323 322 318 312 314 319 315 311 321 326 320 323 334 335 334 335 334 333 333 333 338 346 352 359 360 355 355 355 356 357 359 361 363 364 366 366 366 365 363 364 363 361 361 362 362 361 360 361 362 363 364 364 362
325 328 327 327 327 325 323 322 319 321 322 321 317 315 319 322 315 313 323 327 324 327 333 333 333 334 333 334 334 332 332 339 352 362 361 355 353 355 356 358 360 361 363 365 366 365 365 365 364 364 363 362 363 363 363 363 361 361 363 365 365 365 362
325 327 327 327 326 324 323 323 323 324 323 322 320 320 322 322 319 321 326 327 328 332 332 331 332 333 333 333 333 331 330 336 350 359 358 353 352 353 355 358 360 361 362 364 364 364 365 365 364 364 363 363 364 363 363 363 362 362 364 365 366 364 362
321 326 328 326 326 324 321 321 325 325 323 322 321 321 323 323 321 324 325 324 328 332 333 332 331 333 333 332 332 334 334 336 345 353 354 352 351 352 354 358 359 360 361 362 363 363 363 364 365 364 364 364 364 363 363 363 363 363 364 366 365 363 361
317 324 326 325 325 323 319 318 322 324 322 321 321 323 324 322 321 323 320 318 324 331 331 331 332 331 331 333 334 335 338 341 346 351 353 354 354 354 355 358 359 359 360 362 363 362 362 364 365 365 365 365 364 363 362 363 363 363 365 366 364 362 361
316 321 324 322 321 318 315 317 323 325 324 324 323 324 326 326 324 322 318 320 327 331 329 331 333 330 329 335 338 339 345 351 352 353 353 354 355 356 357 358 359 358 358 360 361 362 362 364 364 364 364 365 364 363 362 363 363 363 365 365 363 362 360
317 320 323 322 319 314 316 323 327 327 326 326 324 324 326 326 326 325 324 327 331 332 330 332 333 332 333 338 342 344 349 354 357 356 354 353 354 355 355 356 357 358 358 359 360 361 361 362 363 362 363 364 364 363 361 362 363 364 365 365 362 361 360
320 320 322 319 316 318 325 332 332 329 328 327 326 327 328 327 327 327 328 330 330 330 332 333 332 334 336 339 345 349 349 351 354 354 354 356 356 355 356 357 357 358 358 358 359 360 359 359 359 361 362 363 363 362 362 362 364 364 365 364 362 360 359
324 322 320 319 321 325 329 334 335 333 332 330 326 324 326 327 328 328 329 330 329 330 333 331 331 337 342 343 348 351 348 346 346 344 346 352 352 353 356 357 357 358 358 358 360 361 359 358 359 361 361 361 361 362 362 363 364 365 365 364 362 359 358
328 322 317 320 323 324 329 337 340 339 338 338 333 328 329 330 328 328 329 330 328 329 331 331 335 342 342 342 341 341 342 343 342 340 340 344 350 353 353 354 356 358 358 359 361 361 359 359 359 360 360 360 360 362 362 363 363 363 363 363 361 359 358
328 323 321 323 320 320 329 339 341 339 336 339 340 334 333 334 330 328 329 331 331 332 330 332 340 343 340 337 335 334 337 341 342 340 340 341 346 349 350 353 357 359 359 360 360 359 358 358 357 358 358 359 361 362 361 361 362 362 362 363 361 360 358
324 323 325 325 320 324 339 342 339 338 335 337 339 330 327 334 338 334 329 329 333 334 332 336 345 343 336 333 334 336 340 340 341 342 343 344 346 350 354 356 358 358 359 358 357 357 357 357 358 358 359 360 361 362 361 361 361 362 362 362 361 360 358
322 323 324 323 322 332 344 340 336 337 336 338 335 323 325 340 348 344 341 338 335 333 334 343 346 341 335 334 338 341 342 341 341 345 347 348 350 353 354 354 355 358 359 357 357 358 360 361 361 360 360 361 362 362 362 362 362 362 362 361 361 359 357
322 323 322 322 327 338 343 338 337 337 335 335 330 325 333 347 347 343 344 344 342 340 343 345 344 341 340 343 343 342 342 344 346 347 348 349 351 351 352 355 358 359 359 359 360 363 365 364 362 361 362 363 364 363 363 362 362 362 361 361 360 358 356
321 322 323 323 328 338 341 337 337 337 334 332 332 336 343 346 344 344 344 341 342 345 346 345 343 342 344 344 345 345 347 350 352 352 351 353 356 357 358 359 359 359 361 363 363 365 365 364 363 364 364 365 365 365 363 363 363 363 361 360 358 356 354
322 322 324 324 328 336 339 337 338 340 338 337 339 343 346 344 344 347 347 344 343 344 345 346 346 347 349 351 352 354 354 356 356 356 357 357 358 359 359 359 359 360 362 363 362 363 363 363 364 365 365 365 364 363 363 363 363 362 360 358 357 355 354
322 319 324 329 334 338 338 337 339 341 339 338 340 342 345 345 345 347 350 350 348 347 351 353 352 354 357 357 357 357 356 356 356 356 357 356 355 356 357 358 359 359 360 360 360 361 361 362 362 362 363 362 362 362 363 363 361 360 360 357 355 354 353
328 326 331 338 341 340 337 337 339 338 335 335 336 339 341 343 344 346 349 352 351 352 355 356 356 357 357 356 356 356 356 357 357 356 356 356 356 357 358 359 358 358 359 359 358 358 359 360 360 361 360 360 361 363 362 359 358 358 358 356 355 353 353
337 337 340 342 341 340 337 335 335 333 332 332 334 337 339 340 342 344 345 347 349 350 352 354 355 356 354 354 356 356 358 358 359 359 358 358 358 360 360 361 360 358 358 358 357 356 356 356 357 358 358 360 361 360 356 354 354 356 355 354 353 351 352
333 336 340 341 340 341 338 335 334 332 331 332 332 335 338 338 339 340 342 343 344 344 345 348 349 349 350 353 354 354 356 357 357 357 358 357 358 360 361 361 360 359 358 357 356 354 353 352 354 355 355 356 356 353 351 352 352 352 352 351 350 350 350
337 339 343 341 339 337 334 333 333 333 331 331 331 333 335 335 336 338 339 340 341 343 344 345 344 343 344 348 350 351 352 354 355 356 357 357 358 360 362 362 361 361 360 358 355 354 352 352 352 352 352 351 350 349 350 349 349 350 350 348 348 348 348
340 341 341 340 339 337 332 330 330 330 330 331 331 332 332 333 335 336 337 337 338 341 343 345 347 346 345 345 345 346 348 350 352 353 354 356 358 359 360 361 362 361 361 359 357 355 354 352 351 350 349 348 347 347 347 347 348 349 348 347 347 347 346
339 340 340 339 341 341 335 331 330 329 329 330 331 331 331 332 333 335 335 335 335 335 337 341 346 348 348 347 346 346 348 350 351 352 353 354 356 357 357 357 359 359 359 358 358 356 354 353 351 349 348 347 346 346 346 347 348 348 347 346 346 345 344
335 335 337 337 338 337 333 331 331 330 329 329 330 330 330 330 331 332 332 333 333 333 332 334 338 342 344 344 345 346 348 349 351 352 352 352 352 353 353 354 357 357 357 357 357 356 355 353 351 349 348 347 346 346 345 346 347 346 345 345 344 343 343
331 331 332 334 333 331 329 329 330 330 329 328 328 329 329 328 328 329 330 330 330 331 331 331 332 335 337 338 340 343 345 346 349 351 351 350 349 349 350 352 354 355 356 356 356 355 354 352 351 349 348 346 345 345 344 345 345 345 344 344 343 342 343
330 329 330 330 329 328 327 327 328 329 328 328 328 329 329 328 326 326 328 329 328 328 329 330 331 333 333 333 335 337 339 340 344 347 348 348 348 347 347 349 351 352 353 353 353 353 353 352 350 349 348 346 345 344 343 344 344 344 344 344 344 343 343

ECMWFFLT2_925_thetae_042.txt.gz
Theta_e
328 326 325 328 322 317 321 320 314 318 326 322 311 310 314 313 312 314 313 314 321 327 333 339 341 340 341 343 341 341 345 347 348 349 348 348 348 348 349 353 357 357 357 359 358 355 357 358 358 358 357 359 361 363 367 369 370 371 369 366 366 366 367
327 327 325 327 325 323 319 313 316 324 326 324 317 311 312 314 313 314 313 312 315 317 322 335 342 340 340 342 341 341 343 345 347 349 350 350 350 350 352 356 358 357 357 360 359 355 354 357 357 358 358 359 361 363 366 369 371 372 371 368 366 366 367
326 329 325 322 324 327 322 318 324 323 314 313 314 311 312 314 314 314 312 313 314 313 318 329 337 340 341 343 343 342 341 342 344 349 353 354 353 352 353 355 357 357 357 359 358 354 353 354 357 360 360 360 361 363 365 368 370 372 371 369 368 367 367
327 326 322 316 317 324 324 323 325 323 316 313 313 313 313 313 313 313 313 313 313 317 326 332 338 343 344 343 345 344 340 340 345 348 352 355 353 353 352 351 355 356 354 356 357 355 352 353 357 360 360 360 359 362 364 367 370 372 372 371 369 368 368
324 320 321 319 318 320 319 316 316 317 318 318 316 315 314 313 313 312 314 313 313 324 336 338 342 344 343 344 346 347 344 339 342 348 349 351 353 355 354 351 350 352 354 355 356 356 353 353 356 359 360 359 358 359 362 366 369 372 373 373 370 368 368
315 318 326 327 325 324 321 317 315 315 317 316 313 313 313 313 312 311 314 313 314 327 340 342 344 343 340 343 344 344 342 340 343 346 346 350 354 355 356 353 349 350 356 357 356 357 355 353 355 357 359 359 357 358 360 364 369 371 372 374 371 368 369
321 326 329 328 326 328 326 323 321 321 320 314 308 309 311 312 312 312 313 311 316 333 348 346 346 346 339 341 345 343 341 341 342 343 346 351 355 354 353 349 348 352 356 358 358 359 358 356 357 358 358 359 358 358 360 363 368 371 372 373 372 369 369
326 328 329 329 328 328 324 322 324 323 320 318 315 316 316 312 310 311 312 310 316 335 357 352 347 348 341 339 344 342 342 343 339 343 354 357 357 356 351 347 351 354 353 359 366 367 363 360 359 359 361 361 360 359 360 362 367 370 371 372 373 370 369
319 320 321 322 323 324 322 323 325 324 323 323 321 320 319 314 311 312 312 310 315 333 358 354 342 343 339 336 339 339 344 347 343 351 361 362 363 362 356 355 359 357 356 364 374 374 367 362 361 363 363 363 363 362 361 362 365 369 369 369 372 372 370
314 313 313 314 317 321 322 323 324 325 324 322 318 314 312 312 314 315 312 311 319 334 350 346 339 341 341 342 341 338 343 347 352 365 367 366 371 371 367 368 367 364 366 373 379 378 371 364 363 365 365 365 365 363 361 361 363 366 366 365 369 372 372
315 316 319 323 323 319 316 319 322 323 324 324 320 312 308 311 314 314 317 320 322 329 341 343 340 340 341 346 343 342 352 353 353 369 376 373 374 373 372 374 374 374 381 382 381 379 374 366 362 365 366 364 363 362 361 360 361 363 364 363 366 372 373
322 326 328 329 326 320 317 318 319 321 324 324 319 311 312 319 313 309 323 335 323 323 338 343 342 344 347 347 342 341 353 355 347 362 378 374 372 375 376 378 379 381 385 388 385 380 376 370 364 365 365 363 362 360 359 358 358 360 362 361 364 371 372
325 330 329 329 328 325 324 322 320 321 322 320 317 315 319 323 314 311 328 341 330 328 336 338 341 348 346 345 344 340 344 347 345 362 378 372 368 372 374 377 381 381 384 391 390 382 379 374 368 366 365 364 362 361 358 357 356 357 359 360 362 369 372
324 328 328 330 329 325 324 324 324 323 323 322 320 320 323 324 321 321 329 336 334 333 335 334 337 342 342 343 344 341 340 341 343 357 368 365 363 368 372 377 381 380 381 387 389 386 383 379 372 368 367 366 364 363 359 357 355 356 358 359 362 367 371
321 326 329 329 328 326 322 322 326 327 325 323 322 322 323 322 323 325 325 327 330 332 335 336 337 340 343 345 344 343 346 345 342 344 347 349 354 360 367 375 378 379 379 382 386 387 384 380 374 369 368 367 365 364 361 358 357 356 358 361 362 366 371
317 324 327 325 327 327 320 319 324 325 323 322 322 324 325 322 321 324 321 319 325 332 335 335 336 338 340 340 340 343 349 347 343 342 340 344 352 358 366 374 376 377 376 377 382 383 379 377 375 369 370 370 367 365 362 359 357 356 360 363 363 366 371
316 324 325 324 324 320 315 319 324 327 327 326 325 327 329 326 324 321 317 319 329 337 336 334 334 335 337 341 340 342 350 356 355 350 344 343 347 354 367 377 377 374 370 370 376 379 375 374 373 371 371 371 369 366 363 362 360 357 362 365 365 367 372
315 321 324 323 320 315 317 325 329 329 329 328 326 327 329 329 329 326 324 328 335 337 334 333 335 335 338 345 346 344 348 355 357 352 348 348 345 345 357 370 375 375 373 372 375 377 375 372 371 370 370 370 369 367 365 365 362 359 364 368 367 370 374
315 320 322 318 315 319 326 331 333 330 329 329 329 330 331 330 330 331 332 331 333 335 334 332 336 340 338 339 343 344 341 343 345 344 344 350 351 350 352 359 372 380 380 378 378 378 375 371 369 369 370 369 369 367 367 367 365 362 366 370 370 372 375
319 319 319 318 320 326 330 334 333 331 331 331 327 324 328 330 330 336 342 339 335 335 333 330 333 338 335 333 340 343 338 336 338 336 335 340 343 345 348 354 373 387 383 377 378 379 374 371 369 370 370 369 368 367 367 368 366 366 370 371 372 375 376
323 318 316 321 323 324 328 334 336 335 334 332 328 324 328 335 336 339 344 343 340 338 338 337 336 337 335 334 336 336 332 332 335 333 332 334 334 338 343 345 361 380 379 375 376 377 374 372 370 370 370 370 368 367 366 366 367 371 374 374 374 376 376
324 320 318 323 321 320 329 337 339 340 335 334 338 331 331 344 349 344 343 345 344 343 345 346 346 345 344 339 335 333 330 330 332 330 330 333 333 336 342 339 345 367 376 376 375 376 375 372 370 371 371 371 370 369 368 367 368 371 375 376 376 377 376
323 321 320 323 321 325 339 344 339 339 335 336 339 327 326 346 356 348 346 347 345 345 348 350 350 348 345 340 336 334 331 331 331 331 334 334 331 334 338 336 347 367 376 375 375 375 374 373 371 372 372 372 371 370 370 369 367 371 375 377 377 376 374
324 324 322 322 323 333 347 343 335 337 336 337 333 321 323 346 355 347 347 349 347 349 352 351 349 349 347 345 343 337 332 331 332 335 342 343 341 340 337 345 366 377 376 376 376 375 373 372 372 372 372 372 370 370 371 370 370 374 376 376 375 373 371
324 324 323 324 329 339 346 338 335 338 336 332 327 323 334 350 348 343 347 347 346 350 353 352 353 352 350 348 344 338 333 333 335 339 345 350 351 341 333 355 376 379 376 377 376 372 372 372 371 371 372 372 372 372 373 372 373 375 376 374 373 370 369
324 325 327 326 330 340 343 336 336 337 333 329 328 335 346 348 343 344 348 346 348 351 351 353 354 352 348 347 344 338 333 336 342 347 348 351 356 351 350 366 376 374 374 376 373 370 371 371 370 372 372 372 373 374 374 374 375 375 374 373 371 369 367
324 325 327 324 326 338 341 335 336 338 335 335 341 346 346 343 343 347 347 347 349 350 349 352 353 351 350 350 348 346 343 341 347 353 355 357 362 365 367 371 371 369 372 373 369 368 371 371 371 373 373 374 374 374 375 375 374 374 372 370 368 367 365
322 318 322 326 330 337 336 335 339 342 342 343 346 344 343 342 342 343 345 346 345 343 345 347 349 351 352 349 346 349 349 343 346 356 361 359 360 364 368 368 367 367 371 372 369 368 370 371 372 372 373 373 373 374 374 374 371 371 370 368 366 365 363
328 325 329 335 339 338 336 339 343 343 341 341 340 340 341 340 340 343 347 347 345 345 346 347 348 353 356 355 354 354 355 354 355 362 365 364 360 362 366 368 369 369 371 374 373 372 372 372 372 373 372 372 373 373 372 370 369 368 367 367 365 364 362
340 341 341 340 340 338 336 338 338 337 337 338 338 340 341 339 339 344 348 349 349 350 352 352 353 353 353 354 355 356 358 359 358 359 361 358 358 362 365 366 368 369 371 373 373 374 375 373 372 373 371 371 372 371 369 368 367 366 366 364 364 362 361
342 346 347 342 340 340 337 336 336 335 336 337 339 342 343 342 342 344 346 347 348 348 350 351 351 349 348 348 350 351 353 353 351 354 358 354 351 351 351 353 359 365 369 372 374 374 374 372 372 372 371 370 370 369 368 367 366 365 364 363 362 361 360
345 346 346 342 339 339 336 336 338 338 338 338 340 341 342 342 341 340 340 340 340 342 345 347 347 347 347 346 346 347 347 347 348 351 353 352 351 350 348 347 350 355 360 362 364 366 365 364 367 368 369 368 367 366 366 365 364 363 362 360 360 359 357
347 346 344 343 342 341 338 337 337 338 339 339 338 338 338 338 337 337 337 336 335 336 338 340 344 346 346 346 347 346 344 343 346 348 350 350 349 349 349 350 350 352 355 355 356 359 360 360 362 364 364 363 363 363 362 361 360 360 358 357 358 356 355
346 345 343 344 344 343 341 338 336 337 337 337 337 336 335 334 334 335 334 333 333 333 333 334 338 342 345 346 347 347 345 344 344 346 348 349 349 348 347 347 348 351 354 355 356 359 360 359 359 360 360 360 360 360 360 359 358 357 355 356 355 354 353
342 341 341 342 342 342 341 338 337 336 335 334 334 334 332 332 332 331 331 330 331 331 330 330 332 336 339 343 347 349 348 345 345 346 346 346 348 349 348 349 351 353 355 357 358 358 357 357 357 357 358 358 359 359 359 359 358 356 356 355 353 352 352
340 340 340 340 339 338 336 335 335 335 335 334 334 333 331 330 329 328 328 327 328 328 328 328 329 331 333 336 339 343 345 346 346 346 345 345 349 352 354 356 357 358 358 359 358 357 357 357 356 357 357 357 358 358 358 358 358 357 356 354 352 352 351
339 339 338 339 337 334 333 332 332 332 332 332 333 333 332 330 329 328 328 326 325 325 325 325 326 326 328 330 332 334 337 340 341 343 345 347 349 350 352 355 358 359 359 358 357 356 356 356 356 356 357 356 356 356 356 356 356 355 354 352 350 349 349

ECMWFFLT2_925_thetae_045.txt.gz
Theta_e
328 328 327 330 325 319 321 318 313 316 324 324 314 313 315 314 315 317 313 316 324 332 340 343 341 342 342 345 347 348 351 352 351 350 350 350 350 353 354 355 356 358 357 353 352 353 354 356 356 357 357 359 360 361 362 363 363 363 363 363 363 363 363
326 328 328 330 327 324 319 313 316 323 326 324 318 313 313 314 315 315 313 315 318 319 327 341 344 342 341 345 346 348 352 353 350 350 351 352 353 352 353 355 356 358 359 356 353 353 355 356 356 356 358 358 360 362 362 363 364 365 364 364 364 363 363
327 329 326 324 325 327 323 318 323 323 315 314 314 312 313 314 315 314 314 316 317 317 324 335 340 344 344 345 346 346 350 353 351 350 351 353 352 352 352 353 355 356 357 356 353 353 354 356 356 357 357 358 360 362 364 364 364 365 365 364 364 364 364
327 327 324 317 318 324 324 323 325 323 317 314 314 313 313 314 315 315 316 316 317 326 337 338 340 346 346 345 346 346 347 351 352 350 351 352 351 351 349 350 353 355 355 355 353 353 355 356 357 358 358 358 359 362 364 365 365 366 366 365 365 364 364
323 321 322 319 319 321 319 318 317 316 318 318 317 315 313 313 315 317 319 316 317 337 351 344 344 345 343 346 346 345 345 347 350 350 350 350 349 350 349 347 351 354 353 353 353 353 354 356 357 358 358 358 358 361 363 366 366 366 367 367 365 365 364
316 319 327 327 324 324 321 318 316 316 316 314 313 315 313 311 311 315 320 316 320 344 349 343 350 346 340 346 346 345 344 343 346 349 348 349 349 349 349 347 349 352 353 352 352 353 354 355 357 357 357 358 358 360 362 364 366 367 367 367 366 365 365
321 326 329 327 326 327 325 322 322 322 319 313 309 312 315 313 310 313 317 315 326 353 352 352 363 351 341 347 347 345 345 342 346 349 346 348 349 348 348 347 347 352 354 351 352 354 353 354 357 356 356 357 357 359 361 363 366 367 367 368 367 366 365
326 329 328 327 328 327 323 322 324 322 320 317 314 319 323 316 311 314 315 312 322 344 362 374 378 356 342 345 346 345 344 341 344 349 347 348 350 350 349 348 349 352 353 354 356 357 354 353 355 356 356 357 356 358 359 361 365 366 367 368 367 367 365
319 322 325 324 322 323 323 323 325 323 324 322 318 320 323 317 312 314 316 315 322 336 354 366 367 352 342 345 345 346 347 344 342 348 351 351 351 352 351 350 353 354 354 357 360 361 356 352 354 356 356 357 357 357 358 360 363 365 366 368 368 368 367
316 316 319 321 320 320 323 324 324 324 324 322 317 314 314 317 319 317 314 318 328 339 338 340 349 351 345 345 344 343 346 345 346 354 354 352 353 356 355 353 354 358 359 360 362 362 356 352 353 355 356 357 357 356 357 359 360 363 365 367 368 368 368
319 319 324 332 328 319 317 320 323 324 325 323 320 312 309 318 324 319 320 324 325 334 340 339 347 354 354 352 349 353 359 355 358 364 357 352 355 356 356 354 356 362 365 364 364 363 357 353 353 354 356 357 358 357 357 357 358 362 364 367 368 368 368
325 330 331 334 330 320 317 320 320 323 326 324 319 312 312 319 318 314 329 338 323 324 340 347 348 354 361 359 350 360 375 374 370 365 354 351 355 354 354 354 358 365 366 365 366 366 362 355 354 355 356 357 357 357 357 357 357 360 363 366 368 369 370
326 331 329 330 330 325 323 323 321 322 324 321 318 316 319 324 317 313 331 346 337 335 342 347 352 355 359 359 350 350 364 375 374 365 356 354 353 352 354 355 359 366 365 363 367 369 366 359 355 356 356 357 358 358 358 357 357 359 363 366 368 370 370
324 327 327 328 327 325 324 324 324 324 324 323 321 321 324 325 323 323 331 344 351 354 343 339 353 367 366 361 352 344 351 366 373 367 360 358 354 354 358 357 358 363 363 363 365 370 371 363 357 358 358 357 359 359 359 359 357 358 362 365 368 370 370
321 325 328 328 325 325 322 322 327 325 324 323 321 323 324 323 325 329 329 333 343 356 348 338 350 365 364 354 347 346 351 360 365 366 365 364 365 368 372 370 365 363 363 368 370 371 373 366 358 359 360 360 360 360 360 360 359 359 362 365 367 368 369
319 323 326 326 325 325 319 318 325 325 322 322 321 323 326 323 325 328 325 322 331 348 351 340 342 351 353 354 354 355 361 361 359 362 369 374 374 377 379 378 374 369 370 378 380 374 371 366 360 359 361 361 362 361 362 361 361 360 361 364 366 366 368
320 324 325 323 321 319 316 318 324 327 327 327 324 324 327 326 326 326 325 330 342 353 349 338 336 339 342 354 363 359 364 368 360 357 363 367 369 373 376 376 374 370 370 378 383 377 369 365 363 360 361 362 362 362 362 362 361 361 360 362 364 364 366
320 324 325 326 321 315 317 326 331 330 331 330 327 327 328 328 327 325 330 342 352 355 350 342 339 337 334 349 365 364 362 370 372 365 363 362 359 359 364 370 372 370 368 371 376 373 368 366 365 363 361 362 362 362 361 361 360 360 359 360 362 362 364
322 325 326 323 320 321 328 335 336 332 332 332 332 332 332 330 333 336 340 343 346 352 353 348 348 352 350 349 356 360 360 369 373 368 366 371 368 359 356 361 367 369 369 369 371 371 368 367 367 365 363 363 362 362 361 360 359 358 357 358 360 361 363
323 323 323 322 324 331 335 337 336 334 336 336 329 328 337 342 344 351 354 349 349 353 355 351 350 354 354 349 349 352 356 361 361 354 353 361 366 364 362 364 369 371 368 365 365 366 367 367 367 367 365 364 363 363 362 361 360 358 356 357 360 361 363
324 319 319 322 326 328 331 334 338 339 340 340 335 336 347 356 353 355 358 354 352 356 357 357 358 360 362 362 357 350 344 345 347 347 345 345 347 355 362 365 366 365 362 361 360 360 363 367 367 366 366 366 365 364 364 362 361 359 357 358 361 362 363
326 319 318 322 320 322 332 339 343 343 338 339 352 359 357 360 356 355 358 357 358 362 361 361 367 374 373 367 360 350 343 342 341 339 337 334 333 341 350 359 364 364 362 361 360 360 363 365 366 366 366 366 366 365 365 364 363 361 361 361 363 364 366
325 318 319 321 318 327 350 353 344 342 336 338 354 355 350 358 360 353 354 357 360 363 365 364 367 371 368 363 359 353 348 345 341 339 340 339 338 338 336 338 351 362 366 365 361 361 365 366 366 367 367 366 367 366 365 365 364 363 364 366 367 367 369
327 322 321 320 321 340 366 356 337 337 340 342 341 333 339 360 361 352 353 356 357 360 363 365 366 365 365 364 359 352 348 347 347 348 350 350 351 355 349 337 334 344 357 368 370 367 367 368 367 366 367 367 367 366 365 365 364 364 366 369 370 371 372
329 326 324 322 328 349 361 346 337 340 343 343 336 334 351 365 355 350 352 350 350 354 356 359 362 361 359 359 356 352 352 354 355 356 356 354 356 365 366 358 346 336 340 357 370 371 369 369 368 366 368 367 366 366 366 364 364 365 369 372 373 373 373
330 330 330 328 335 350 349 340 339 338 339 340 340 348 361 357 347 349 351 347 349 352 351 354 357 356 355 356 357 357 356 355 357 360 359 358 361 367 369 365 361 356 350 356 366 372 371 370 368 368 368 367 366 366 365 364 365 368 372 374 374 372 372
330 331 330 330 338 348 343 340 348 349 347 350 355 355 351 348 349 352 352 352 355 355 353 354 354 354 356 356 356 357 356 355 357 358 359 359 360 364 369 368 363 363 364 363 366 369 370 370 370 369 369 368 367 367 366 365 368 372 374 374 373 371 370
332 330 330 335 345 349 342 346 356 356 353 355 356 350 346 350 353 353 353 355 355 354 355 354 352 352 353 352 352 354 354 353 354 356 358 358 356 358 364 364 358 357 361 362 360 361 364 366 367 369 370 369 367 367 368 369 372 375 374 372 370 369 367
340 338 340 344 348 347 344 347 351 348 345 346 346 345 348 350 350 351 352 352 351 351 351 350 350 351 351 350 349 349 348 350 351 353 354 353 353 355 357 356 354 355 360 361 356 354 358 361 362 365 368 369 368 368 372 373 374 373 371 369 367 365 363
346 347 345 344 345 346 343 342 342 342 343 344 344 345 346 345 344 345 346 345 346 347 348 348 349 349 349 349 348 346 346 348 348 350 352 350 350 352 353 352 352 352 355 357 356 355 358 360 361 361 362 366 370 372 373 373 372 370 368 366 364 362 361
348 354 351 343 342 344 342 341 342 344 343 342 341 342 342 340 339 339 338 339 340 341 343 345 345 346 347 349 348 346 346 346 346 347 347 346 348 350 351 351 351 350 352 357 359 357 357 358 360 360 361 364 369 372 372 371 369 367 365 363 362 360 359
347 352 348 342 341 342 342 342 343 343 342 340 339 339 339 337 336 335 334 335 336 337 338 339 339 342 344 345 346 347 346 345 345 343 342 341 343 346 348 349 349 348 350 354 355 354 354 356 358 360 360 360 360 363 366 366 365 364 363 361 360 358 357
347 348 343 341 344 344 341 341 340 338 338 338 337 337 335 334 333 332 331 331 331 332 334 334 335 336 338 339 342 344 344 345 343 341 340 341 341 342 344 345 346 347 347 349 351 351 350 351 354 356 356 355 353 356 360 361 361 360 360 359 358 357 356
350 347 341 341 345 346 343 340 338 336 335 334 334 334 333 332 332 330 329 328 328 328 330 331 332 333 333 334 336 338 341 343 343 340 340 340 342 343 344 344 345 346 347 349 349 348 346 347 348 350 351 351 352 354 356 358 358 357 357 357 356 355 356
347 342 339 340 343 343 340 337 337 336 334 332 331 330 329 329 329 328 327 326 326 326 328 329 329 330 329 330 331 333 336 339 342 342 342 342 343 343 343 345 345 345 345 346 345 343 342 343 344 346 349 350 350 352 354 355 356 355 355 355 354 354 353
342 339 338 340 341 341 338 336 336 336 334 333 332 330 329 328 327 327 327 325 325 325 326 327 328 327 327 326 327 329 330 333 338 340 339 340 343 343 342 345 345 343 344 346 344 342 342 343 344 347 351 352 352 353 353 354 355 354 354 353 353 352 350
339 338 338 339 339 339 337 334 333 333 333 333 333 333 331 330 329 328 328 326 324 323 324 326 327 326 326 326 326 326 326 328 332 333 332 333 338 342 344 344 343 343 346 346 345 345 345 344 346 349 353 356 356 355 354 354 354 353 353 352 351 349 348

ECMWFFLT2_925_thetae_048.txt.gz
Theta_e
327 325 327 326 321 320 321 317 313 316 324 321 314 315 320 316 315 319 319 321 330 336 341 345 342 343 344 345 346 346 346 347 347 348 348 346 347 346 346 346 346 347 347 345 345 347 349 350 351 352 353 353 355 356 357 357 357 358 358 358 357 357 357
326 326 326 326 325 326 321 313 314 321 325 323 319 315 314 312 313 318 317 315 321 324 332 348 347 341 344 345 346 346 346 348 347 348 348 346 347 347 347 348 347 346 348 346 345 347 348 350 351 352 353 353 354 356 357 357 357 358 359 359 359 358 357
325 328 325 323 325 326 322 319 321 322 315 313 316 316 314 312 313 315 316 318 322 322 332 348 344 340 345 343 344 347 345 347 348 346 348 347 347 348 347 348 348 348 348 347 346 347 349 350 350 352 353 353 354 356 357 358 357 358 359 359 359 359 358
324 327 324 318 320 324 325 324 323 324 318 312 313 316 316 315 316 317 315 316 322 332 346 351 342 342 345 341 343 346 344 346 346 345 347 347 347 348 348 348 348 349 348 347 347 346 349 350 350 352 353 354 355 356 357 358 358 358 358 359 360 359 359
321 320 323 320 319 322 321 319 317 317 318 316 315 316 317 319 321 322 317 314 323 345 360 354 347 342 341 341 343 344 344 345 345 346 347 347 347 347 347 348 348 348 348 347 347 347 349 350 351 352 353 354 355 355 357 358 358 358 359 359 360 360 360
316 318 326 326 324 325 322 319 318 316 316 316 313 314 318 317 318 324 324 317 325 352 358 351 351 344 339 341 340 341 345 345 344 347 346 346 348 347 347 348 348 348 350 349 348 348 349 350 352 352 353 355 355 356 357 358 359 359 359 359 359 360 360
319 324 328 326 324 326 325 323 323 321 320 316 310 315 322 316 312 322 324 316 328 362 366 355 352 345 338 340 340 340 343 345 346 346 346 347 347 347 347 347 347 349 350 350 349 349 349 351 353 353 353 355 355 357 357 357 359 359 360 360 360 360 360
321 325 328 328 326 326 322 322 324 322 320 318 316 326 332 321 313 316 316 312 325 356 367 364 363 351 340 338 340 340 342 346 347 346 346 348 348 348 348 346 348 349 350 352 353 352 352 351 352 353 353 355 355 356 358 358 359 359 360 361 360 361 361
317 319 320 321 322 323 321 322 324 322 323 321 319 326 328 319 315 316 312 310 323 348 353 355 362 357 348 346 343 341 343 345 347 347 347 349 348 349 349 347 349 350 351 356 357 356 353 351 353 354 353 355 355 356 358 359 360 360 360 361 361 361 361
314 314 316 321 322 321 321 323 322 322 324 320 317 317 314 314 320 320 316 317 331 352 344 332 341 342 343 351 347 341 343 344 347 349 348 349 351 350 350 349 350 352 354 356 357 357 353 351 354 354 353 355 355 355 358 359 360 361 361 362 363 362 362
315 316 326 339 333 319 316 319 320 321 324 321 320 315 311 320 325 318 325 334 331 335 338 329 330 330 337 353 352 345 345 343 346 350 349 350 350 349 350 349 349 354 356 356 356 356 353 351 353 355 354 355 355 355 357 358 360 362 362 362 363 363 363
319 325 334 338 331 320 316 319 318 320 324 321 319 313 315 330 322 309 331 352 327 325 342 336 329 334 343 355 355 349 347 343 344 349 349 350 349 348 351 350 351 355 356 355 356 356 354 351 352 354 354 355 355 355 356 357 359 361 362 363 364 364 364
323 326 327 328 329 326 322 321 319 319 322 320 316 316 321 331 318 310 337 358 334 331 346 339 335 347 356 359 352 346 346 345 348 352 349 349 348 348 350 350 351 354 354 355 355 355 355 352 351 353 354 354 355 355 355 357 358 360 362 363 364 364 364
322 324 325 327 328 327 323 322 323 321 322 321 318 320 324 326 322 322 339 353 346 344 350 343 340 353 368 369 355 346 346 350 356 358 353 348 347 348 350 350 350 352 353 355 354 355 356 353 351 352 353 354 354 354 355 356 357 359 361 363 364 364 365
318 322 326 326 325 326 323 322 325 322 321 322 320 321 324 323 324 328 332 336 340 346 357 356 351 360 367 359 353 354 355 358 362 361 355 350 348 349 349 349 349 350 353 354 354 355 358 354 351 351 352 354 354 354 355 355 355 357 359 361 363 364 365
315 319 323 323 322 324 319 319 325 324 320 321 319 322 327 325 327 331 327 324 330 340 351 350 350 361 358 345 354 362 360 364 366 358 355 353 348 350 351 351 352 352 353 356 355 356 356 353 351 350 351 353 353 354 355 354 355 356 358 360 361 363 364
317 319 321 321 319 318 314 316 323 325 326 325 322 324 327 325 329 329 322 324 337 345 344 339 341 352 352 352 366 367 363 373 370 357 354 354 350 351 352 353 355 354 353 355 356 357 355 352 351 351 351 352 353 354 354 354 355 355 356 359 360 362 363
321 322 322 321 316 313 317 324 328 329 330 329 327 328 331 332 334 330 326 333 344 345 341 338 337 340 345 352 361 359 358 366 368 363 359 355 351 352 352 352 353 353 354 354 353 353 352 352 352 352 352 353 353 354 355 355 355 355 355 357 359 361 363
326 326 322 318 317 322 333 336 331 330 329 332 340 347 353 355 351 344 341 345 350 349 345 343 344 344 344 347 350 348 346 349 356 363 366 363 358 354 353 352 351 350 353 355 354 351 350 353 355 354 353 354 353 353 355 355 355 355 355 356 358 360 362
328 324 319 319 327 341 349 342 335 336 333 336 349 355 357 359 358 356 352 351 355 357 351 349 349 346 345 350 351 349 348 348 348 349 354 358 359 358 358 357 356 355 351 350 351 351 351 353 355 355 355 354 354 354 355 355 356 356 355 355 358 359 361
329 324 320 323 328 333 340 342 343 344 338 335 350 354 352 354 356 356 356 359 363 362 359 359 351 343 350 361 357 350 351 355 353 349 347 345 346 352 358 358 357 355 351 348 348 348 352 354 355 356 356 355 355 356 355 356 356 357 357 356 357 359 361
332 327 322 323 321 324 337 347 345 345 343 342 353 358 353 354 357 355 357 363 367 369 373 373 363 361 374 373 359 354 354 355 358 358 355 351 347 344 348 352 353 350 349 352 352 351 355 357 356 357 357 356 357 356 357 358 357 357 358 357 357 358 360
327 325 323 323 322 331 352 357 342 338 343 347 355 357 352 356 358 354 355 358 360 364 370 372 372 384 391 371 357 358 357 354 356 358 358 359 359 354 349 347 348 346 345 351 354 353 355 357 359 360 359 358 358 357 357 359 358 358 358 358 358 358 359
325 324 325 325 327 342 362 356 339 339 346 345 346 346 348 357 356 352 351 352 354 356 359 362 369 381 383 369 358 357 355 353 355 357 357 358 360 361 357 352 350 343 341 352 358 356 354 355 359 362 362 361 359 358 359 359 358 358 358 358 358 358 358
327 325 323 323 330 350 362 350 341 343 341 335 333 339 352 358 354 352 353 352 353 355 357 362 365 365 364 360 355 353 352 352 354 355 354 354 354 356 356 354 357 353 344 349 355 357 355 356 356 359 363 363 361 360 360 359 359 359 358 358 358 358 358
335 333 330 327 332 347 350 343 345 348 340 332 335 345 356 356 354 358 357 355 355 356 356 358 359 355 352 351 350 349 349 351 353 352 351 352 353 353 353 353 354 356 355 353 354 356 357 358 356 357 361 363 362 362 361 360 360 360 359 359 358 357 358
343 344 338 330 333 341 341 339 349 358 351 344 347 353 355 353 355 357 355 354 355 354 353 353 352 351 349 347 347 347 347 348 350 349 349 351 352 353 353 352 351 353 357 358 357 359 361 361 362 361 361 361 362 361 361 361 362 360 360 360 359 358 359
346 348 344 338 337 339 340 343 350 354 351 349 351 353 353 353 352 352 352 353 351 350 352 351 349 349 348 346 346 347 346 346 346 346 346 347 348 350 351 351 350 350 354 356 357 361 364 365 366 365 364 364 362 361 362 363 362 362 362 363 362 362 363
343 344 344 342 339 338 341 345 349 348 347 348 348 349 351 350 349 349 350 350 348 348 349 348 348 348 347 346 346 345 345 345 344 343 344 344 346 347 348 348 348 348 351 353 354 356 359 362 364 366 366 365 362 362 363 363 363 365 366 366 367 366 366
342 342 340 338 339 339 340 342 344 343 343 344 343 343 345 344 344 344 344 344 345 345 345 346 347 346 344 344 344 344 344 343 342 342 342 342 343 344 345 345 346 347 349 350 351 352 354 356 359 361 363 363 362 363 365 365 365 367 368 369 368 367 367
342 344 342 338 339 341 339 339 340 339 338 338 338 339 340 339 338 338 338 339 339 339 340 341 341 341 342 343 343 342 343 342 340 340 341 341 341 343 343 344 345 347 348 349 349 349 349 351 353 355 356 358 360 363 367 368 368 369 369 368 367 366 366
342 343 341 338 339 340 338 337 337 336 335 335 333 334 334 333 333 333 333 333 334 334 335 335 336 337 338 340 341 341 341 341 341 341 341 342 342 342 342 343 345 347 347 346 346 345 345 346 348 349 351 353 355 358 360 362 365 365 363 363 363 363 362
343 341 339 338 341 341 339 338 336 334 333 332 331 330 330 330 330 330 330 330 330 331 331 332 332 333 333 334 336 336 335 336 337 338 340 342 342 342 343 343 344 345 344 343 343 343 342 342 344 346 346 348 350 352 352 354 357 356 353 353 355 355 353
345 341 338 339 342 342 339 337 336 333 331 330 329 329 328 328 328 328 328 328 327 327 328 329 330 331 332 332 332 332 332 332 332 333 337 340 342 343 343 343 343 343 342 340 340 341 340 340 341 344 345 345 346 348 348 349 351 350 348 347 347 347 346
342 338 337 339 340 339 337 335 334 334 332 328 327 326 326 325 326 326 326 327 327 326 327 327 327 329 330 330 330 330 329 330 331 332 334 337 340 343 344 343 344 343 342 340 339 339 339 339 339 342 344 344 345 345 345 345 346 346 345 344 343 342 341
339 337 336 337 338 337 336 334 335 336 335 330 328 327 326 324 323 324 325 326 326 326 326 326 326 326 327 328 328 328 327 328 329 331 332 334 338 341 343 343 344 344 344 342 341 341 341 341 342 344 345 344 345 345 344 343 343 344 343 342 341 340 338
338 338 336 336 336 336 335 334 335 336 336 333 332 330 328 326 324 324 325 326 326 325 325 326 326 325 326 326 326 325 325 326 327 329 331 333 335 337 340 341 342 343 344 344 343 344 343 342 343 344 345 345 345 345 345 344 344 345 345 343 342 340 339